Location: *
(45.5224°N, 122.7471°W)
Time: 22:26:07
(UTC+00:00)

Cosmos 1627 Rocket - Pass Details

Date: 09 April 2020
Orbit: 951 x 1003 km, 82.9° (Epoch: 02 June)

Event Time Altitude Azimuth Distance (km) Brightness Sun altitude
Rises 12:39:45 0° 193° (SSW) 3,622 7.1 -10.1°
Reaches altitude 10° 12:42:15 10° 196° (SSW) 2,676 6.5 -9.7°
Maximum altitude 12:48:21 71° 280° (W) 1,006 4.4 -8.7°
Drops below altitude 10° 12:54:29 10° 5° (N) 2,690 7.2 -7.7°
Sets 12:57:01 0° 7° (N) 3,642 7.9 -7.3°
